W9IF-4 Weather Reports


Display with metric or nautical units.
time (UTC)temp
F
wind
direction
speed
MPH
gust
MPH
rain 1hr
in
rain 24hr
in
rain mn
in
humidity
%
barometer
mb
20190418230912 67 293 7.0 0.0 0.00 0.00 0.00 1017.2
20190418230812 68 309 8.0 0.0 0.00 0.00 0.00 1015.8
20190418230712 68 301 8.0 0.0 0.00 0.00 0.00 1017.3
20190418230512 68 305 6.0 0.0 0.00 0.00 0.00 1017.3
20190418230412 68 298 8.0 0.0 0.00 0.00 0.00 1017.3
20190418230312 68 304 7.0 0.0 0.00 0.00 0.00 1015.9
20190418230212 68 308 8.0 0.0 0.00 0.00 0.00 1017.3
20190418225812 68 314 8.0 0.0 0.00 0.00 0.00 1017.3
20190418225711 67 318 9.0 0.0 0.00 0.00 0.00 1015.7
20190418225612 68 319 9.0 0.0 0.00 0.00 0.00 1015.9
20190418225311 66 311 9.0 0.0 0.00 0.00 0.00 1017.3
20190418225212 67 332 8.0 0.0 0.00 0.00 0.00 1015.8
20190418225111 66 328 10.0 0.0 0.00 0.00 0.00 1017.4
20190418225012 68 314 9.0 0.0 0.00 0.00 0.00 1017.3
20190418224912 68 332 7.0 0.0 0.00 0.00 0.00 1015.8
20190418224811 68 298 10.0 0.0 0.00 0.00 0.00 1017.3
20190418224712 67 305 9.0 0.0 0.00 0.00 0.00 1015.9
20190418224512 65 312 8.0 0.0 0.00 0.00 0.00 1015.9
20190418224412 65 332 10.0 0.0 0.00 0.00 0.00 1017.4
20190418224312 66 322 10.0 0.0 0.00 0.00 0.00 1017.3
20190418224212 68 311 9.0 0.0 0.00 0.00 0.00 1015.9
20190418223912 66 308 12.0 0.0 0.00 0.00 0.00 1017.4
20190418223812 66 302 9.0 0.0 0.00 0.00 0.00 1015.9
20190418223711 66 312 10.0 0.0 0.00 0.00 0.00 1017.4
20190418223512 66 321 9.0 0.0 0.00 0.00 0.00 1015.9
20190418223413 65 335 9.0 0.0 0.00 0.00 0.00 1017.5
20190418223214 64 323 12.0 0.0 0.00 0.00 0.00 1017.5
20190418223012 65 328 11.0 0.0 0.00 0.00 0.00 1016.9
20190418222812 66 309 13.0 0.0 0.00 0.00 0.00 1017.5
20190418222712 66 318 11.0 0.0 0.00 0.00 0.00 1015.9
20190418222511 66 316 8.0 0.0 0.00 0.00 0.00 1017.6
20190418222411 66 314 9.0 0.0 0.00 0.00 0.00 1016.1
20190418222011 68 321 9.0 0.0 0.00 0.00 0.00 1017.6
20190418221911 67 321 9.0 0.0 0.00 0.00 0.00 1015.8
20190418221811 67 315 10.0 0.0 0.00 0.00 0.00 1017.5
20190418221712 66 309 11.0 0.0 0.00 0.00 0.00 1016.1
20190418221512 68 305 11.0 0.0 0.00 0.00 0.00 1017.6
20190418221411 67 301 11.0 0.0 0.00 0.00 0.00 1015.9
20190418221311 68 308 11.0 0.0 0.00 0.00 0.00 1017.6
20190418221212 67 305 10.0 0.0 0.00 0.00 0.00 1016.1
20190418221111 67 309 12.0 0.0 0.00 0.00 0.00 1015.9
20190418221011 68 304 8.0 0.0 0.00 0.00 0.00 1016.2
20190418220911 67 309 9.0 0.0 0.00 0.00 0.00 1016.6
20190418220811 66 316 9.0 0.0 0.00 0.00 0.00 1017.7
20190418220712 65 309 10.0 0.0 0.00 0.00 0.00 1016.2
20190418220611 66 311 10.0 0.0 0.00 0.00 0.00 1017.8
20190418220411 64 325 10.0 0.0 0.00 0.00 0.00 1017.7
20190418220311 64 322 10.0 0.0 0.00 0.00 0.00 1016.1
20190418220211 63 328 12.0 0.0 0.00 0.00 0.00 1016.4
20190418220111 64 336 10.0 0.0 0.00 0.00 0.00 1017.6
20190418220011 64 326 11.0 0.0 0.00 0.00 0.00 1016.1
20190418215911 65 330 9.0 0.0 0.00 0.00 0.00 1017.7
20190418215812 64 330 8.0 0.0 0.00 0.00 0.00 1016.1
20190418215711 64 325 11.0 0.0 0.00 0.00 0.00 1017.7
20190418215612 64 323 12.0 0.0 0.00 0.00 0.00 1016.1
20190418215511 64 329 11.0 0.0 0.00 0.00 0.00 1016.4
20190418215411 64 323 11.0 0.0 0.00 0.00 0.00 1017.7
20190418215311 65 319 12.0 0.0 0.00 0.00 0.00 1016.2
20190418215211 65 316 12.0 0.0 0.00 0.00 0.00 1017.7
20190418215111 65 345 9.0 0.0 0.00 0.00 0.00 1016.3
20190418214911 64 326 11.0 0.0 0.00 0.00 0.00 1017.7
20190418214811 64 319 12.0 0.0 0.00 0.00 0.00 1016.4
20190418214711 65 326 12.0 0.0 0.00 0.00 0.00 1017.8
20190418214611 65 330 13.0 0.0 0.00 0.00 0.00 1016.4
20190418214511 65 328 12.0 0.0 0.00 0.00 0.00 1017.9
20190418214411 65 316 10.0 0.0 0.00 0.00 0.00 1016.4
20190418214311 66 323 11.0 0.0 0.00 0.00 0.00 1017.9
20190418214211 66 328 9.0 0.0 0.00 0.00 0.00 1017.9
20190418214111 66 316 10.0 0.0 0.00 0.00 0.00 1016.5
20190418214011 65 318 10.0 0.0 0.00 0.00 0.00 1017.9
20190418213911 65 329 9.0 0.0 0.00 0.00 0.00 1016.5
20190418213811 65 314 11.0 0.0 0.00 0.00 0.00 1018.0
20190418213711 66 311 7.0 0.0 0.00 0.00 0.00 1016.5
20190418213611 65 323 9.0 0.0 0.00 0.00 0.00 1018.0
20190418213511 66 325 8.0 0.0 0.00 0.00 0.00 1018.0
20190418213411 66 319 11.0 0.0 0.00 0.00 0.00 1016.6
20190418213311 65 326 9.0 0.0 0.00 0.00 0.00 1018.1
20190418213211 65 319 5.0 0.0 0.00 0.00 0.00 1016.6
20190418213111 65 323 7.0 0.0 0.00 0.00 0.00 1018.1
20190418213011 65 330 10.0 0.0 0.00 0.00 0.00 1016.6
20190418212911 66 333 9.0 0.0 0.00 0.00 0.00 1018.1
20190418212811 65 318 10.0 0.0 0.00 0.00 0.00 1018.1
20190418212711 64 316 9.0 0.0 0.00 0.00 0.00 1016.6
20190418212612 64 323 9.0 0.0 0.00 0.00 0.00 1018.1
20190418212511 64 326 11.0 0.0 0.00 0.00 0.00 1016.6
20190418212311 65 321 10.0 0.0 0.00 0.00 0.00 1016.7
20190418212211 65 338 8.0 0.0 0.00 0.00 0.00 1018.2
20190418212111 65 322 9.0 0.0 0.00 0.00 0.00 1018.3
20190418212011 65 328 10.0 0.0 0.00 0.00 0.00 1016.8
20190418211911 65 325 9.0 0.0 0.00 0.00 0.00 1016.7
20190418211711 65 326 9.0 0.0 0.00 0.00 0.00 1018.3
20190418211611 65 328 9.0 0.0 0.00 0.00 0.00 1016.8
20190418211512 66 325 9.0 0.0 0.00 0.00 0.00 1018.3
20190418211411 66 319 9.0 0.0 0.00 0.00 0.00 1018.3
20190418211311 65 308 8.0 0.0 0.00 0.00 0.00 1016.9
20190418211211 64 316 9.0 0.0 0.00 0.00 0.00 1018.4
20190418211111 64 321 9.0 0.0 0.00 0.00 0.00 1016.9
20190418211011 65 323 10.0 0.0 0.00 0.00 0.00 1018.4
20190418210911 65 326 10.0 0.0 0.00 0.00 0.00 1017.0
20190418210811 65 314 9.0 0.0 0.00 0.00 0.00 1018.0
20190418210711 65 326 9.0 0.0 0.00 0.00 0.00 1018.4
20190418210611 65 321 9.0 0.0 0.00 0.00 0.00 1017.0
20190418210511 65 325 12.0 0.0 0.00 0.00 0.00 1018.4
20190418210411 65 325 10.0 0.0 0.00 0.00 0.00 1017.1
20190418210311 65 325 9.0 0.0 0.00 0.00 0.00 1018.4
20190418210211 65 319 12.0 0.0 0.00 0.00 0.00 1017.1
20190418210111 65 326 11.0 0.0 0.00 0.00 0.00 1017.9
20190418210011 64 326 8.0 0.0 0.00 0.00 0.00 1018.5
20190418205911 66 321 8.0 0.0 0.00 0.00 0.00 1017.2
20190418205811 65 326 10.0 0.0 0.00 0.00 0.00 1018.5
20190418205711 66 328 11.0 0.0 0.00 0.00 0.00 1017.1
20190418205612 66 321 12.0 0.0 0.00 0.00 0.00 1018.6
20190418205511 67 342 8.0 0.0 0.00 0.00 0.00 1017.3
20190418205411 67 325 8.0 0.0 0.00 0.00 0.00 1017.7
20190418205311 67 321 10.0 0.0 0.00 0.00 0.00 1018.6
20190418205211 66 321 10.0 0.0 0.00 0.00 0.00 1017.3
20190418205111 67 319 9.0 0.0 0.00 0.00 0.00 1018.7
20190418205011 66 339 7.0 0.0 0.00 0.00 0.00 1017.3
20190418204911 65 326 10.0 0.0 0.00 0.00 0.00 1018.8
20190418204811 66 336 7.0 0.0 0.00 0.00 0.00 1017.4
20190418204712 66 330 8.0 0.0 0.00 0.00 0.00 1017.8
20190418204611 66 342 6.0 0.0 0.00 0.00 0.00 1018.9
20190418204511 66 328 9.0 0.0 0.00 0.00 0.00 1017.5
20190418204411 67 315 9.0 0.0 0.00 0.00 0.00 1018.9
20190418204311 67 336 8.0 0.0 0.00 0.00 0.00 1017.5
20190418204111 67 298 9.0 0.0 0.00 0.00 0.00 1016.1
20190418203911 69 301 10.0 0.0 0.00 0.00 0.00 1018.9
20190418203811 69 294 10.0 0.0 0.00 0.00 0.00 1017.5
20190418203711 69 315 10.0 0.0 0.00 0.00 0.00 1018.9
20190418203611 69 305 10.0 0.0 0.00 0.00 0.00 1017.5
20190418203511 69 307 9.0 0.0 0.00 0.00 0.00 1018.9
20190418203411 68 308 10.0 0.0 0.00 0.00 0.00 1017.4
20190418203311 68 316 10.0 0.0 0.00 0.00 0.00 1017.7
20190418203211 68 305 10.0 0.0 0.00 0.00 0.00 1018.9
20190418203111 68 319 8.0 0.0 0.00 0.00 0.00 1017.5
20190418203011 69 318 10.0 0.0 0.00 0.00 0.00 1019.0
20190418202911 69 307 8.0 0.0 0.00 0.00 0.00 1017.7
20190418202811 69 311 11.0 0.0 0.00 0.00 0.00 1019.0
20190418202711 69 301 9.0 0.0 0.00 0.00 0.00 1017.6
20190418202612 69 309 8.0 0.0 0.00 0.00 0.00 1017.7
20190418202511 68 315 9.0 0.0 0.00 0.00 0.00 1019.0
20190418202411 69 291 10.0 0.0 0.00 0.00 0.00 1017.6
20190418202311 68 312 9.0 0.0 0.00 0.00 0.00 1019.0
20190418202211 69 315 8.0 0.0 0.00 0.00 0.00 1017.6
20190418202111 67 305 8.0 0.0 0.00 0.00 0.00 1019.0
20190418202011 67 308 9.0 0.0 0.00 0.00 0.00 1017.6
20190418201912 66 309 8.0 0.0 0.00 0.00 0.00 1017.7
20190418201811 68 322 8.0 0.0 0.00 0.00 0.00 1018.9
20190418201711 68 316 9.0 0.0 0.00 0.00 0.00 1017.6
20190418201611 68 314 10.0 0.0 0.00 0.00 0.00 1018.9
20190418201511 69 312 9.0 0.0 0.00 0.00 0.00 1017.6
20190418201411 68 311 9.0 0.0 0.00 0.00 0.00 1018.9
20190418201311 68 315 10.0 0.0 0.00 0.00 0.00 1019.0
20190418201211 68 284 11.0 0.0 0.00 0.00 0.00 1017.7
20190418201111 67 328 9.0 0.0 0.00 0.00 0.00 1017.6
20190418201011 67 323 10.0 0.0 0.00 0.00 0.00 1017.7
20190418200911 68 332 9.0 0.0 0.00 0.00 0.00 1019.0
20190418200811 66 311 9.0 0.0 0.00 0.00 0.00 1017.5
20190418200711 67 318 11.0 0.0 0.00 0.00 0.00 1018.9
20190418200511 66 312 8.0 0.0 0.00 0.00 0.00 1017.7
20190418200411 66 332 9.0 0.0 0.00 0.00 0.00 1019.0
20190418200311 67 328 9.0 0.0 0.00 0.00 0.00 1017.5
20190418200211 67 342 7.0 0.0 0.00 0.00 0.00 1019.0
20190418200111 66 305 9.0 0.0 0.00 0.00 0.00 1017.5
20190418200011 67 312 7.0 0.0 0.00 0.00 0.00 1018.9
20190418195911 68 312 8.0 0.0 0.00 0.00 0.00 1019.0
20190418195811 68 322 10.0 0.0 0.00 0.00 0.00 1017.6
20190418195711 67 325 9.0 0.0 0.00 0.00 0.00 1017.6
20190418195612 68 322 8.0 0.0 0.00 0.00 0.00 1017.7
20190418195511 68 333 8.0 0.0 0.00 0.00 0.00 1019.0
20190418195411 69 322 8.0 0.0 0.00 0.00 0.00 1017.7
20190418195311 68 294 7.0 0.0 0.00 0.00 0.00 1019.2
20190418195211 68 322 9.0 0.0 0.00 0.00 0.00 1019.1
20190418195111 69 316 10.0 0.0 0.00 0.00 0.00 1017.9
20190418195011 69 335 8.0 0.0 0.00 0.00 0.00 1019.2
20190418194711 70 312 9.0 0.0 0.00 0.00 0.00 1018.2
20190418194411 70 294 8.0 0.0 0.00 0.00 0.00 1018.0
20190418194311 71 294 6.0 0.0 0.00 0.00 0.00 1019.4
20190418194211 71 295 8.0 0.0 0.00 0.00 0.00 1017.9
20190418194113 70 343 7.0 0.0 0.00 0.00 0.00 1018.0
20190418194011 69 287 11.0 0.0 0.00 0.00 0.00 1018.0
20190418193811 71 285 10.0 0.0 0.00 0.00 0.00 1019.5
20190418193611 70 293 8.0 0.0 0.00 0.00 0.00 1019.6
20190418193411 70 280 10.0 0.0 0.00 0.00 0.00 1019.6
20190418193311 70 277 5.0 0.0 0.00 0.00 0.00 1018.2
20190418193211 70 273 9.0 0.0 0.00 0.00 0.00 1018.8
20190418193111 70 253 6.0 0.0 0.00 0.00 0.00 1019.6
20190418193011 70 274 9.0 0.0 0.00 0.00 0.00 1018.2
20190418192911 70 270 10.0 0.0 0.00 0.00 0.00 1019.6
20190418192811 69 271 7.0 0.0 0.00 0.00 0.00 1018.2
20190418192711 68 293 10.0 0.0 0.00 0.00 0.00 1019.6
20190418192612 69 284 10.0 0.0 0.00 0.00 0.00 1018.3
20190418192311 72 260 11.0 0.0 0.00 0.00 0.00 1018.3
20190418192211 72 267 9.0 0.0 0.00 0.00 0.00 1019.7
20190418192111 72 284 9.0 0.0 0.00 0.00 0.00 1018.3
20190418192012 70 277 8.0 0.0 0.00 0.00 0.00 1019.7
20190418191911 70 281 11.0 0.0 0.00 0.00 0.00 1018.4
20190418191711 70 300 6.0 0.0 0.00 0.00 0.00 1019.8
20190418191611 71 270 9.0 0.0 0.00 0.00 0.00 1018.4
20190418191511 72 264 5.0 0.0 0.00 0.00 0.00 1019.7
20190418191411 72 249 9.0 0.0 0.00 0.00 0.00 1018.3
20190418191311 71 270 7.0 0.0 0.00 0.00 0.00 1019.7
20190418191211 70 304 9.0 0.0 0.00 0.00 0.00 1018.2
20190418191111 70 243 7.0 0.0 0.00 0.00 0.00 1018.5
20190418191011 69 273 10.0 0.0 0.00 0.00 0.00 1019.7
20190418190911 70 280 8.0 0.0 0.00 0.00 0.00 1018.4
20190418190811 72 271 5.0 0.0 0.00 0.00 0.00 1019.8
20190418190611 72 263 10.0 0.0 0.00 0.00 0.00 1019.8
20190418190411 71 273 8.0 0.0 0.00 0.00 0.00 1018.6
20190418190311 72 267 9.0 0.0 0.00 0.00 0.00 1019.9
20190418190211 71 257 9.0 0.0 0.00 0.00 0.00 1018.6
20190418190011 71 262 9.0 0.0 0.00 0.00 0.00 1018.6
20190418185911 71 263 8.0 0.0 0.00 0.00 0.00 1019.8
20190418185811 71 267 7.0 0.0 0.00 0.00 0.00 1019.9
20190418185711 72 257 8.0 0.0 0.00 0.00 0.00 1018.6
20190418185612 71 271 8.0 0.0 0.00 0.00 0.00 1019.8
20190418185411 70 260 8.0 0.0 0.00 0.00 0.00 1019.9
20190418185111 71 259 10.0 0.0 0.00 0.00 0.00 1019.9
20190418185011 71 263 9.0 0.0 0.00 0.00 0.00 1018.6
20190418184811 74 260 6.0 0.0 0.00 0.00 0.00 1018.6
20190418184711 73 249 6.0 0.0 0.00 0.00 0.00 1019.8
20190418184611 71 245 8.0 0.0 0.00 0.00 0.00 1018.5
20190418184511 71 253 7.0 0.0 0.00 0.00 0.00 1019.8
20190418184411 71 255 7.0 0.0 0.00 0.00 0.00 1019.7
20190418184311 71 264 8.0 0.0 0.00 0.00 0.00 1018.5
20190418184211 71 250 7.0 0.0 0.00 0.00 0.00 1019.6
20190418184111 71 270 7.0 0.0 0.00 0.00 0.00 1018.4
20190418184011 71 257 7.0 0.0 0.00 0.00 0.00 1019.6
20190418183911 71 266 7.0 0.0 0.00 0.00 0.00 1018.4
20190418183811 71 277 7.0 0.0 0.00 0.00 0.00 1019.6
20190418183611 70 250 7.0 0.0 0.00 0.00 0.00 1018.4
20190418183411 72 269 7.0 0.0 0.00 0.00 0.00 1018.4
20190418183311 72 262 6.0 0.0 0.00 0.00 0.00 1019.6
20190418183211 72 276 3.0 0.0 0.00 0.00 0.00 1018.4
20190418183011 72 271 5.0 0.0 0.00 0.00 0.00 1019.7
20190418182811 73 273 6.0 0.0 0.00 0.00 0.00 1019.7
20190418182711 73 249 5.0 0.0 0.00 0.00 0.00 1018.5
20190418182612 73 260 6.0 0.0 0.00 0.00 0.00 1019.7
20190418182411 71 239 5.0 0.0 0.00 0.00 0.00 1019.4
20190418182311 70 263 6.0 0.0 0.00 0.00 0.00 1019.7
20190418182211 70 262 6.0 0.0 0.00 0.00 0.00 1018.3
20190418182011 70 259 6.0 0.0 0.00 0.00 0.00 1018.5
20190418181911 70 260 5.0 0.0 0.00 0.00 0.00 1019.8
20190418181811 71 288 6.0 0.0 0.00 0.00 0.00 1018.5
20190418181611 71 270 7.0 0.0 0.00 0.00 0.00 1019.7
20190418181511 71 252 6.0 0.0 0.00 0.00 0.00 1018.4
20190418181411 70 269 6.0 0.0 0.00 0.00 0.00 1019.7
20190418181311 71 259 6.0 0.0 0.00 0.00 0.00 1018.4
20190418181211 70 262 5.0 0.0 0.00 0.00 0.00 1019.7
20190418181111 70 283 5.0 0.0 0.00 0.00 0.00 1017.1
20190418181011 70 269 4.0 0.0 0.00 0.00 0.00 1019.0
20190418180911 71 257 4.0 0.0 0.00 0.00 0.00 1019.7
20190418180811 70 281 5.0 0.0 0.00 0.00 0.00 1018.4
20190418180711 71 264 5.0 0.0 0.00 0.00 0.00 1019.7
20190418180611 70 314 3.0 0.0 0.00 0.00 0.00 1018.3
20190418180511 71 273 3.0 0.0 0.00 0.00 0.00 1019.7
20190418180411 70 263 6.0 0.0 0.00 0.00 0.00 1018.4
20190418180211 71 273 5.0 0.0 0.00 0.00 0.00 1019.7
20190418180111 69 257 5.0 0.0 0.00 0.00 0.00 1018.4
20190418180011 69 280 5.0 0.0 0.00 0.00 0.00 1019.7
20190418175911 69 270 5.0 0.0 0.00 0.00 0.00 1018.3
20190418175811 68 243 4.0 0.0 0.00 0.00 0.00 1019.7
20190418175711 69 271 4.0 0.0 0.00 0.00 0.00 1018.4
20190418175612 69 277 3.0 0.0 0.00 0.00 0.00 1018.6
20190418175511 69 224 0.0 0.0 0.00 0.00 0.00 1019.6
20190418175411 69 224 0.0 0.0 0.00 0.00 0.00 1018.4
20190418175311 70 224 0.0 0.0 0.00 0.00 0.00 1019.6
20190418175211 70 224 0.0 0.0 0.00 0.00 0.00 1018.2
20190418175111 70 280 3.0 0.0 0.00 0.00 0.00 1019.6
20190418175011 70 260 5.0 0.0 0.00 0.00 0.00 1018.3
20190418174911 72 264 5.0 0.0 0.00 0.00 0.00 1018.5
20190418174711 72 259 5.0 0.0 0.00 0.00 0.00 1018.4
20190418174611 72 231 5.0 0.0 0.00 0.00 0.00 1019.7
20190418174511 71 222 3.0 0.0 0.00 0.00 0.00 1018.4
20190418174411 72 271 5.0 0.0 0.00 0.00 0.00 1019.6
20190418174311 73 239 4.0 0.0 0.00 0.00 0.00 1018.3
20190418174211 72 242 6.0 0.0 0.00 0.00 0.00 1018.6
20190418174111 73 281 3.0 0.0 0.00 0.00 0.00 1018.4
20190418174011 74 259 5.0 0.0 0.00 0.00 0.00 1018.4
20190418173711 74 249 5.0 0.0 0.00 0.00 0.00 1019.6
20190418173611 74 184 0.0 0.0 0.00 0.00 0.00 1019.6
20190418173511 71 235 3.0 0.0 0.00 0.00 0.00 1018.7
20190418173211 70 256 5.0 0.0 0.00 0.00 0.00 1019.6
20190418173111 71 257 6.0 0.0 0.00 0.00 0.00 1018.5
20190418172911 72 255 6.0 0.0 0.00 0.00 0.00 1019.6
20190418172711 74 260 5.0 0.0 0.00 0.00 0.00 1018.5
20190418172611 74 264 6.0 0.0 0.00 0.00 0.00 1018.5
20190418172511 74 273 5.0 0.0 0.00 0.00 0.00 1019.7
20190418172311 72 256 6.0 0.0 0.00 0.00 0.00 1019.7
20190418172211 73 267 5.0 0.0 0.00 0.00 0.00 1019.6
20190418172011 72 229 0.0 0.0 0.00 0.00 0.00 1019.7
20190418171911 72 229 0.0 0.0 0.00 0.00 0.00 1018.6
20190418171511 71 238 0.0 0.0 0.00 0.00 0.00 1019.6
20190418171411 70 238 0.0 0.0 0.00 0.00 0.00 1018.4
20190418171311 70 239 0.0 0.0 0.00 0.00 0.00 1019.7
20190418171211 70 239 0.0 0.0 0.00 0.00 0.00 1018.4
20190418171111 72 239 0.0 0.0 0.00 0.00 0.00 1018.3
20190418170911 71 239 0.0 0.0 0.00 0.00 0.00 1019.7
20190418170811 71 239 0.0 0.0 0.00 0.00 0.00 1019.7
20190418170711 71 239 0.0 0.0 0.00 0.00 0.00 1018.4
20190418170511 68 239 3.0 0.0 0.00 0.00 0.00 1018.4
20190418170411 69 264 3.0 0.0 0.00 0.00 0.00 1019.6
20190418170311 69 273 0.0 0.0 0.00 0.00 0.00 1018.2
20190418170211 69 273 0.0 0.0 0.00 0.00 0.00 1019.6
20190418165711 71 273 0.0 0.0 0.00 0.00 0.00 1019.5
20190418165611 71 273 0.0 0.0 0.00 0.00 0.00 1018.4
20190418165511 71 273 0.0 0.0 0.00 0.00 0.00 1019.2
20190418165311 68 273 0.0 0.0 0.00 0.00 0.00 1018.1
20190418165211 67 273 0.0 0.0 0.00 0.00 0.00 1019.5
20190418165111 68 273 0.0 0.0 0.00 0.00 0.00 1018.1
20190418165011 69 273 0.0 0.0 0.00 0.00 0.00 1019.5
20190418164911 68 273 0.0 0.0 0.00 0.00 0.00 1018.1
20190418164811 68 257 5.0 0.0 0.00 0.00 0.00 1018.9
20190418164711 70 269 5.0 0.0 0.00 0.00 0.00 1019.6
20190418164611 70 253 5.0 0.0 0.00 0.00 0.00 1018.2
20190418164511 71 245 0.0 0.0 0.00 0.00 0.00 1019.6
20190418164411 71 245 0.0 0.0 0.00 0.00 0.00 1018.1
20190418164311 69 245 0.0 0.0 0.00 0.00 0.00 1019.6
20190418163911 71 219 0.0 0.0 0.00 0.00 0.00 1018.1
20190418163811 71 249 3.0 0.0 0.00 0.00 0.00 1019.5
20190418163711 70 240 4.0 0.0 0.00 0.00 0.00 1018.1
20190418163611 70 267 3.0 0.0 0.00 0.00 0.00 1019.5
20190418163511 70 238 4.0 0.0 0.00 0.00 0.00 1018.0
20190418163411 69 236 4.0 0.0 0.00 0.00 0.00 1018.4
20190418163211 68 231 0.0 0.0 0.00 0.00 0.00 1018.0
20190418163111 67 231 0.0 0.0 0.00 0.00 0.00 1019.4
20190418163011 68 231 0.0 0.0 0.00 0.00 0.00 1018.0
20190418162911 68 253 3.0 0.0 0.00 0.00 0.00 1019.4
20190418162811 68 263 0.0 0.0 0.00 0.00 0.00 1018.0
20190418162711 69 236 0.0 0.0 0.00 0.00 0.00 1018.3
20190418162612 69 236 0.0 0.0 0.00 0.00 0.00 1019.5
20190418162511 68 236 0.0 0.0 0.00 0.00 0.00 1018.1
20190418162411 68 236 0.0 0.0 0.00 0.00 0.00 1018.0
20190418162311 68 236 0.0 0.0 0.00 0.00 0.00 1018.0
20190418162211 68 236 0.0 0.0 0.00 0.00 0.00 1019.5
20190418162011 68 236 0.0 0.0 0.00 0.00 0.00 1018.3
20190418161913 69 236 0.0 0.0 0.00 0.00 0.00 1019.5
20190418161813 69 236 0.0 0.0 0.00 0.00 0.00 1018.1
20190418161712 69 236 0.0 0.0 0.00 0.00 0.00 1019.5
20190418161617 68 236 0.0 0.0 0.00 0.00 0.00 1018.0
20190418161512 69 236 0.0 0.0 0.00 0.00 0.00 1019.5
20190418161311 69 214 4.0 0.0 0.00 0.00 0.00 1018.2
20190418161111 69 235 0.0 0.0 0.00 0.00 0.00 1018.0
20190418161011 69 228 3.0 0.0 0.00 0.00 0.00 1019.5
20190418160811 70 84 3.0 0.0 0.00 0.00 0.00 1019.6
20190418160710 70 84 0.0 0.0 0.00 0.00 0.00 1019.6
20190418160611 70 84 0.0 0.0 0.00 0.00 0.00 1018.3
20190418160511 70 84 0.0 0.0 0.00 0.00 0.00 1019.6
20190418160411 70 84 0.0 0.0 0.00 0.00 0.00 1018.2
20190418160311 70 84 0.0 0.0 0.00 0.00 0.00 1019.6
20190418160211 69 84 0.0 0.0 0.00 0.00 0.00 1018.1
20190418160111 69 84 0.0 0.0 0.00 0.00 0.00 1019.6
20190418160011 69 84 0.0 0.0 0.00 0.00 0.00 1019.6
20190418155912 68 84 0.0 0.0 0.00 0.00 0.00 1018.2
20190418155810 68 84 0.0 0.0 0.00 0.00 0.00 1019.5
20190418155611 67 84 0.0 0.0 0.00 0.00 0.00 1019.5
20190418155511 67 84 0.0 0.0 0.00 0.00 0.00 1018.0
20190418155411 67 84 0.0 0.0 0.00 0.00 0.00 1019.5
20190418155310 66 84 0.0 0.0 0.00 0.00 0.00 1019.5
20190418155211 66 84 0.0 0.0 0.00 0.00 0.00 1018.1
20190418155111 65 84 0.0 0.0 0.00 0.00 0.00 1019.5
20190418155011 66 84 0.0 0.0 0.00 0.00 0.00 1017.9
20190418154911 66 84 0.0 0.0 0.00 0.00 0.00 1019.4
20190418154811 66 84 0.0 0.0 0.00 0.00 0.00 1018.0
20190418154710 66 84 0.0 0.0 0.00 0.00 0.00 1019.4
20190418154611 66 84 0.0 0.0 0.00 0.00 0.00 1019.4
20190418154511 66 84 0.0 0.0 0.00 0.00 0.00 1018.0
20190418154411 66 84 0.0 0.0 0.00 0.00 0.00 1019.4
20190418154311 66 84 0.0 0.0 0.00 0.00 0.00 1017.9
20190418154111 65 84 0.0 0.0 0.00 0.00 0.00 1016.7
20190418154010 65 84 0.0 0.0 0.00 0.00 0.00 1019.5
20190418153711 65 84 0.0 0.0 0.00 0.00 0.00 1019.5
20190418153511 65 84 0.0 0.0 0.00 0.00 0.00 1019.5
20190418153311 64 84 0.0 0.0 0.00 0.00 0.00 1019.2
20190418153111 65 84 0.0 0.0 0.00 0.00 0.00 1018.1
20190418152911 65 84 0.0 0.0 0.00 0.00 0.00 1018.0
20190418152811 65 84 0.0 0.0 0.00 0.00 0.00 1019.6
20190418152611 65 84 0.0 0.0 0.00 0.00 0.00 1019.0
20190418152511 64 84 0.0 0.0 0.00 0.00 0.00 1018.2
20190418152411 64 84 0.0 0.0 0.00 0.00 0.00 1018.2
20190418152210 64 84 0.0 0.0 0.00 0.00 0.00 1018.2
20190418152111 65 84 0.0 0.0 0.00 0.00 0.00 1019.6
20190418152010 65 84 0.0 0.0 0.00 0.00 0.00 1018.1
20190418151911 65 84 0.0 0.0 0.00 0.00 0.00 1018.7
20190418151811 66 84 0.0 0.0 0.00 0.00 0.00 1019.5
20190418151611 69 84 0.0 0.0 0.00 0.00 0.00 1019.5
20190418151511 71 84 0.0 0.0 0.00 0.00 0.00 1018.0
20190418151411 72 84 0.0 0.0 0.00 0.00 0.00 1019.5
20190418151311 73 84 0.0 0.0 0.00 0.00 0.00 1018.0
20190418151111 73 84 0.0 0.0 0.00 0.00 0.00 1018.0
20190418150911 73 84 0.0 0.0 0.00 0.00 0.00 1019.6
20190418150810 74 84 0.0 0.0 0.00 0.00 0.00 1018.1
20190418150711 74 84 0.0 0.0 0.00 0.00 0.00 1019.6
20190418150611 73 84 0.0 0.0 0.00 0.00 0.00 1018.1
20190418150511 71 84 0.0 0.0 0.00 0.00 0.00 1018.4
20190418150411 70 84 0.0 0.0 0.00 0.00 0.00 1019.6
20190418150311 70 84 0.0 0.0 0.00 0.00 0.00 1018.0
20190418150211 70 84 0.0 0.0 0.00 0.00 0.00 1019.6
20190418150010 69 84 0.0 0.0 0.00 0.00 0.00 1019.6
20190418145911 69 84 0.0 0.0 0.00 0.00 0.00 1018.0
20190418145811 70 84 0.0 0.0 0.00 0.00 0.00 1018.3
20190418145710 70 84 0.0 0.0 0.00 0.00 0.00 1018.1
20190418145611 70 84 0.0 0.0 0.00 0.00 0.00 1018.1
20190418145510 70 84 0.0 0.0 0.00 0.00 0.00 1019.6
20190418145410 69 84 0.0 0.0 0.00 0.00 0.00 1018.1
20190418145210 65 84 0.0 0.0 0.00 0.00 0.00 1018.3
20190418145110 65 84 0.0 0.0 0.00 0.00 0.00 1018.2
20190418145011 64 84 0.0 0.0 0.00 0.00 0.00 1019.5
20190418144911 65 84 0.0 0.0 0.00 0.00 0.00 1018.1
20190418144710 66 84 0.0 0.0 0.00 0.00 0.00 1018.0
20190418144610 68 84 0.0 0.0 0.00 0.00 0.00 1019.5
20190418144511 70 84 0.0 0.0 0.00 0.00 0.00 1019.5
20190418144310 71 84 0.0 0.0 0.00 0.00 0.00 1019.5
20190418144210 69 84 0.0 0.0 0.00 0.00 0.00 1018.1
20190418144110 68 84 0.0 0.0 0.00 0.00 0.00 1018.1
20190418144011 68 84 1.0 0.0 0.00 0.00 0.00 1018.0
20190418143910 68 84 0.0 0.0 0.00 0.00 0.00 1019.5
20190418143810 68 84 0.0 0.0 0.00 0.00 0.00 1019.5
20190418143710 67 84 0.0 0.0 0.00 0.00 0.00 1018.1
20190418143611 66 84 0.0 0.0 0.00 0.00 0.00 1019.5
20190418143510 65 84 0.0 0.0 0.00 0.00 0.00 1018.1
20190418143411 64 84 0.0 0.0 0.00 0.00 0.00 1019.6
20190418143310 62 84 0.0 0.0 0.00 0.00 0.00 1018.1
20190418143211 62 84 0.0 0.0 0.00 0.00 0.00 1019.6
20190418143110 62 84 0.0 0.0 0.00 0.00 0.00 1019.5
20190418143010 62 84 0.0 0.0 0.00 0.00 0.00 1018.2
20190418142910 62 84 0.0 0.0 0.00 0.00 0.00 1019.6
20190418142810 61 84 0.0 0.0 0.00 0.00 0.00 1018.1
20190418142611 61 84 0.0 0.0 0.00 0.00 0.00 1018.1
20190418142511 61 77 3.0 0.0 0.00 0.00 0.00 1019.6
20190418142210 60 83 5.0 0.0 0.00 0.00 0.00 1019.6
20190418142110 60 73 5.0 0.0 0.00 0.00 0.00 1018.1
20190418142010 60 72 4.0 0.0 0.00 0.00 0.00 1019.5
20190418141911 60 70 6.0 0.0 0.00 0.00 0.00 1018.0
20190418141810 60 86 6.0 0.0 0.00 0.00 0.00 1019.5
20190418141710 61 73 6.0 0.0 0.00 0.00 0.00 1019.4
20190418141610 61 83 6.0 0.0 0.00 0.00 0.00 1018.0
20190418141511 61 98 7.0 0.0 0.00 0.00 0.00 1019.4
20190418141410 62 72 8.0 0.0 0.00 0.00 0.00 1018.0
20190418141310 62 75 6.0 0.0 0.00 0.00 0.00 1019.4
20190418141210 62 66 8.0 0.0 0.00 0.00 0.00 1017.9
20190418140911 61 105 7.0 0.0 0.00 0.00 0.00 1017.8
20190418140810 61 66 7.0 0.0 0.00 0.00 0.00 1019.1
20190418140711 60 104 8.0 0.0 0.00 0.00 0.00 1017.7
20190418140610 59 69 7.0 0.0 0.00 0.00 0.00 1019.1
20190418140510 59 79 7.0 0.0 0.00 0.00 0.00 1017.7
20190418140410 59 84 8.0 0.0 0.00 0.00 0.00 1018.6
20190418140310 59 110 7.0 0.0 0.00 0.00 0.00 1019.1
20190418140211 59 76 11.0 0.0 0.00 0.00 0.00 1017.7
20190418140110 59 79 9.0 0.0 0.00 0.00 0.00 1019.2
20190418140010 59 110 7.0 0.0 0.00 0.00 0.00 1017.8
20190418135910 59 86 7.0 0.0 0.00 0.00 0.00 1019.2
20190418135810 59 108 8.0 0.0 0.00 0.00 0.00 1017.7
20190418135710 59 93 8.0 0.0 0.00 0.00 0.00 1018.3
20190418135611 59 96 7.0 0.0 0.00 0.00 0.00 1019.2
20190418135410 59 66 10.0 0.0 0.00 0.00 0.00 1019.1
20190418135210 59 76 7.0 0.0 0.00 0.00 0.00 1019.2
20190418135110 60 87 7.0 0.0 0.00 0.00 0.00 1017.8
20190418135010 60 86 7.0 0.0 0.00 0.00 0.00 1018.2
20190418134910 60 83 8.0 0.0 0.00 0.00 0.00 1019.2
20190418134810 60 73 7.0 0.0 0.00 0.00 0.00 1017.8
20190418134710 60 101 5.0 0.0 0.00 0.00 0.00 1019.2
20190418134610 60 93 5.0 0.0 0.00 0.00 0.00 1017.8
20190418134510 59 98 4.0 0.0 0.00 0.00 0.00 1019.2
20190418134410 59 97 5.0 0.0 0.00 0.00 0.00 1017.8
20190418134310 59 69 5.0 0.0 0.00 0.00 0.00 1018.1
20190418134210 58 96 8.0 0.0 0.00 0.00 0.00 1019.2
20190418134010 58 91 9.0 0.0 0.00 0.00 0.00 1019.2
20190418133810 57 79 7.0 0.0 0.00 0.00 0.00 1019.2
20190418133610 57 97 7.0 0.0 0.00 0.00 0.00 1018.0
20190418133410 57 82 8.0 0.0 0.00 0.00 0.00 1017.8
20190418133210 57 110 8.0 0.0 0.00 0.00 0.00 1017.8
20190418133110 57 84 9.0 0.0 0.00 0.00 0.00 1019.2
20190418133010 56 120 8.0 0.0 0.00 0.00 0.00 1017.9
20190418132910 56 87 7.0 0.0 0.00 0.00 0.00 1018.0
20190418132810 56 108 7.0 0.0 0.00 0.00 0.00 1019.2
20190418132711 56 82 6.0 0.0 0.00 0.00 0.00 1017.9
20190418132611 56 83 8.0 0.0 0.00 0.00 0.00 1019.2
20190418132511 56 86 7.0 0.0 0.00 0.00 0.00 1017.8
20190418132410 56 73 9.0 0.0 0.00 0.00 0.00 1019.2
20190418132310 56 80 9.0 0.0 0.00 0.00 0.00 1019.2
20190418132210 56 75 9.0 0.0 0.00 0.00 0.00 1017.8
20190418132110 56 97 8.0 0.0 0.00 0.00 0.00 1019.2
20190418132010 56 63 9.0 0.0 0.00 0.00 0.00 1017.7
20190418131910 56 72 9.0 0.0 0.00 0.00 0.00 1019.2
20190418131810 56 76 8.0 0.0 0.00 0.00 0.00 1017.8
20190418131710 56 89 8.0 0.0 0.00 0.00 0.00 1019.2
20190418131610 56 80 8.0 0.0 0.00 0.00 0.00 1019.2
20190418131510 56 70 8.0 0.0 0.00 0.00 0.00 1017.9
20190418131410 56 68 8.0 0.0 0.00 0.00 0.00 1019.2
20190418131310 56 80 8.0 0.0 0.00 0.00 0.00 1017.8
20190418131210 56 79 8.0 0.0 0.00 0.00 0.00 1019.2
20190418131110 56 79 7.0 0.0 0.00 0.00 0.00 1016.7
20190418131010 56 94 6.0 0.0 0.00 0.00 0.00 1019.2
20190418130910 56 66 8.0 0.0 0.00 0.00 0.00 1019.2
20190418130810 56 73 8.0 0.0 0.00 0.00 0.00 1017.9
20190418130610 56 113 6.0 0.0 0.00 0.00 0.00 1017.9
20190418130510 56 69 5.0 0.0 0.00 0.00 0.00 1019.3
20190418130310 56 75 3.0 0.0 0.00 0.00 0.00 1019.3
20190418130210 56 91 0.0 0.0 0.00 0.00 0.00 1019.3
20190418130110 56 91 0.0 0.0 0.00 0.00 0.00 1018.0
20190418125810 56 51 3.0 0.0 0.00 0.00 0.00 1019.4
20190418125710 56 79 3.0 0.0 0.00 0.00 0.00 1018.0
20190418125611 56 79 7.0 0.0 0.00 0.00 0.00 1019.4
20190418125410 56 69 7.0 0.0 0.00 0.00 0.00 1017.9
20190418125210 56 82 8.0 0.0 0.00 0.00 0.00 1017.9
20190418125110 57 77 6.0 0.0 0.00 0.00 0.00 1019.3
20190418125010 56 66 8.0 0.0 0.00 0.00 0.00 1017.9
20190418124910 57 65 5.0 0.0 0.00 0.00 0.00 1018.6
20190418124810 57 86 0.0 0.0 0.00 0.00 0.00 1019.2
20190418124710 57 86 0.0 0.0 0.00 0.00 0.00 1017.9
20190418124610 57 86 0.0 0.0 0.00 0.00 0.00 1019.3
20190418124510 57 86 0.0 0.0 0.00 0.00 0.00 1018.0
20190418124310 57 86 0.0 0.0 0.00 0.00 0.00 1018.1
20190418124110 57 86 0.0 0.0 0.00 0.00 0.00 1017.8
20190418124010 57 86 0.0 0.0 0.00 0.00 0.00 1017.9
20190418123910 57 86 0.0 0.0 0.00 0.00 0.00 1019.3
20190418123810 56 86 0.0 0.0 0.00 0.00 0.00 1017.9
20190418123710 56 86 0.0 0.0 0.00 0.00 0.00 1019.2
20190418123610 56 103 0.0 0.0 0.00 0.00 0.00 1017.9
20190418123510 56 103 0.0 0.0 0.00 0.00 0.00 1018.5
20190418123410 56 103 0.0 0.0 0.00 0.00 0.00 1019.3
20190418123310 56 103 0.0 0.0 0.00 0.00 0.00 1018.0
20190418123210 56 103 0.0 0.0 0.00 0.00 0.00 1019.3
20190418122910 55 103 0.0 0.0 0.00 0.00 0.00 1018.2
20190418122710 55 103 0.0 0.0 0.00 0.00 0.00 1018.1
20190418122611 56 103 0.0 0.0 0.00 0.00 0.00 1018.1
20190418122410 56 103 0.0 0.0 0.00 0.00 0.00 1018.1
20190418122010 56 103 0.0 0.0 0.00 0.00 0.00 1019.3
20190418121810 56 103 0.0 0.0 0.00 0.00 0.00 1019.4
20190418121710 55 103 0.0 0.0 0.00 0.00 0.00 1018.1
20190418121610 56 103 0.0 0.0 0.00 0.00 0.00 1019.4
20190418121510 56 103 0.0 0.0 0.00 0.00 0.00 1018.1
20190418121410 56 103 0.0 0.0 0.00 0.00 0.00 1018.3
20190418120710 56 103 0.0 0.0 0.00 0.00 0.00 1018.2
20190418120410 55 103 0.0 0.0 0.00 0.00 0.00 1019.4
20190418120310 55 103 0.0 0.0 0.00 0.00 0.00 1018.0
20190418120210 55 103 0.0 0.0 0.00 0.00 0.00 1019.3
20190418120110 55 103 0.0 0.0 0.00 0.00 0.00 1019.4
20190418115910 55 103 0.0 0.0 0.00 0.00 0.00 1019.4
20190418115711 55 103 0.0 0.0 0.00 0.00 0.00 1018.0
20190418115611 55 103 0.0 0.0 0.00 0.00 0.00 1018.2
20190418115110 55 103 0.0 0.0 0.00 0.00 0.00 1018.1
20190418115010 55 103 0.0 0.0 0.00 0.00 0.00 1019.4
20190418114910 55 103 0.0 0.0 0.00 0.00 0.00 1018.3
20190418114510 56 103 0.0 0.0 0.00 0.00 0.00 1019.5
20190418114310 56 103 0.0 0.0 0.00 0.00 0.00 1019.5
20190418114210 55 103 0.0 0.0 0.00 0.00 0.00 1018.1
20190418114110 55 103 0.0 0.0 0.00 0.00 0.00 1019.5
20190418114010 55 103 0.0 0.0 0.00 0.00 0.00 1019.5
20190418113510 55 103 0.0 0.0 0.00 0.00 0.00 1018.2
20190418113410 55 103 0.0 0.0 0.00 0.00 0.00 1019.7
20190418113310 55 103 0.0 0.0 0.00 0.00 0.00 1019.6
20190418113210 55 103 0.0 0.0 0.00 0.00 0.00 1018.3
20190418113110 55 103 0.0 0.0 0.00 0.00 0.00 1019.6
20190418113010 55 103 0.0 0.0 0.00 0.00 0.00 1018.3
20190418112910 55 103 0.0 0.0 0.00 0.00 0.00 1019.6
20190418112810 55 103 0.0 0.0 0.00 0.00 0.00 1018.3
20190418112710 55 103 0.0 0.0 0.00 0.00 0.00 1019.7
20190418112610 55 103 0.0 0.0 0.00 0.00 0.00 1019.7
20190418112510 55 103 0.0 0.0 0.00 0.00 0.00 1018.3
20190418112110 56 103 0.0 0.0 0.00 0.00 0.00 1018.3
20190418112010 55 103 0.0 0.0 0.00 0.00 0.00 1019.3
20190418111910 55 103 0.0 0.0 0.00 0.00 0.00 1019.7
20190418111710 55 103 0.0 0.0 0.00 0.00 0.00 1019.7
20190418111510 55 103 0.0 0.0 0.00 0.00 0.00 1019.7
20190418111410 55 103 0.0 0.0 0.00 0.00 0.00 1018.3
20190418111310 55 103 0.0 0.0 0.00 0.00 0.00 1019.0
20190418111211 55 103 0.0 0.0 0.00 0.00 0.00 1019.6
20190418111010 56 103 0.0 0.0 0.00 0.00 0.00 1019.6
20190418110910 55 103 0.0 0.0 0.00 0.00 0.00 1018.3
20190418110810 55 103 0.0 0.0 0.00 0.00 0.00 1019.7
20190418110710 55 103 0.0 0.0 0.00 0.00 0.00 1018.3
20190418110610 55 103 0.0 0.0 0.00 0.00 0.00 1018.7
20190418110510 55 103 0.0 0.0 0.00 0.00 0.00 1019.6
20190418110410 55 103 0.0 0.0 0.00 0.00 0.00 1018.3
20190418110310 55 103 0.0 0.0 0.00 0.00 0.00 1019.6
20190418110110 55 103 0.0 0.0 0.00 0.00 0.00 1019.5
20190418110010 55 103 0.0 0.0 0.00 0.00 0.00 1018.1
20190418105910 55 103 0.0 0.0 0.00 0.00 0.00 1018.4
20190418105810 55 103 0.0 0.0 0.00 0.00 0.00 1019.5
20190418105410 55 103 0.0 0.0 0.00 0.00 0.00 1019.3
20190418105210 56 103 0.0 0.0 0.00 0.00 0.00 1018.1
20190418105110 56 103 0.0 0.0 0.00 0.00 0.00 1019.3
20190418105010 56 103 0.0 0.0 0.00 0.00 0.00 1017.9
20190418104910 56 103 0.0 0.0 0.00 0.00 0.00 1019.2
20190418104810 56 103 0.0 0.0 0.00 0.00 0.00 1017.8
20190418104710 56 103 0.0 0.0 0.00 0.00 0.00 1019.2
20190418104510 56 51 3.0 0.0 0.00 0.00 0.00 1017.9
20190418104410 56 69 5.0 0.0 0.00 0.00 0.00 1019.2
20190418104310 56 75 3.0 0.0 0.00 0.00 0.00 1017.8
20190418104110 56 110 0.0 0.0 0.00 0.00 0.00 1017.0
20190418104010 56 110 0.0 0.0 0.00 0.00 0.00 1019.2
20190418103910 56 110 0.0 0.0 0.00 0.00 0.00 1019.2
20190418103810 56 110 0.0 0.0 0.00 0.00 0.00 1018.0
20190418103510 56 110 3.0 0.0 0.00 0.00 0.00 1019.3
20190418103410 56 97 0.0 0.0 0.00 0.00 0.00 1017.9
20190418103310 56 97 0.0 0.0 0.00 0.00 0.00 1019.3
20190418103210 56 97 0.0 0.0 0.00 0.00 0.00 1019.3
20190418103110 56 97 0.0 0.0 0.00 0.00 0.00 1018.1
20190418103010 56 97 0.0 0.0 0.00 0.00 0.00 1018.0
20190418102910 56 97 0.0 0.0 0.00 0.00 0.00 1018.1
20190418102810 56 97 0.0 0.0 0.00 0.00 0.00 1019.4
20190418102710 56 97 0.0 0.0 0.00 0.00 0.00 1018.1
20190418102610 56 97 0.0 0.0 0.00 0.00 0.00 1019.5
20190418102510 56 97 0.0 0.0 0.00 0.00 0.00 1019.5
20190418102410 56 97 0.0 0.0 0.00 0.00 0.00 1018.2
20190418102310 56 97 0.0 0.0 0.00 0.00 0.00 1019.6
20190418102210 56 97 0.0 0.0 0.00 0.00 0.00 1018.2
20190418102110 56 97 0.0 0.0 0.00 0.00 0.00 1019.6
20190418102010 56 97 0.0 0.0 0.00 0.00 0.00 1018.1
20190418101910 56 97 0.0 0.0 0.00 0.00 0.00 1019.5
20190418101810 56 97 0.0 0.0 0.00 0.00 0.00 1019.6
20190418101610 56 97 0.0 0.0 0.00 0.00 0.00 1019.6
20190418101510 56 97 0.0 0.0 0.00 0.00 0.00 1018.2
20190418101411 56 97 0.0 0.0 0.00 0.00 0.00 1019.6
20190418101310 56 97 0.0 0.0 0.00 0.00 0.00 1018.2
20190418101210 56 72 6.0 0.0 0.00 0.00 0.00 1019.6
20190418101110 56 65 5.0 0.0 0.00 0.00 0.00 1018.3
20190418101010 56 86 6.0 0.0 0.00 0.00 0.00 1018.3
20190418100710 56 70 6.0 0.0 0.00 0.00 0.00 1019.7
20190418100510 55 68 6.0 0.0 0.00 0.00 0.00 1019.3
20190418100410 55 66 0.0 0.0 0.00 0.00 0.00 1019.7
20190418100110 55 66 0.0 0.0 0.00 0.00 0.00 1018.2
20190418100010 55 66 0.0 0.0 0.00 0.00 0.00 1019.6
20190418095910 55 66 0.0 0.0 0.00 0.00 0.00 1018.2
20190418095810 55 75 6.0 0.0 0.00 0.00 0.00 1019.2
20190418095710 55 55 0.0 0.0 0.00 0.00 0.00 1018.2
20190418095610 55 55 0.0 0.0 0.00 0.00 0.00 1018.3
20190418095510 55 55 3.0 0.0 0.00 0.00 0.00 1019.6
20190418095410 55 58 0.0 0.0 0.00 0.00 0.00 1018.2
20190418095310 55 58 0.0 0.0 0.00 0.00 0.00 1019.6
20190418095210 55 58 0.0 0.0 0.00 0.00 0.00 1018.2
20190418095110 55 58 5.0 0.0 0.00 0.00 0.00 1018.9
20190418095010 55 62 6.0 0.0 0.00 0.00 0.00 1019.6
20190418094910 55 53 0.0 0.0 0.00 0.00 0.00 1018.2
20190418094710 55 55 3.0 0.0 0.00 0.00 0.00 1018.2
20190418094610 55 239 0.0 0.0 0.00 0.00 0.00 1019.6
20190418094510 55 239 0.0 0.0 0.00 0.00 0.00 1018.3
20190418094410 55 239 0.0 0.0 0.00 0.00 0.00 1018.7
20190418094310 55 239 0.0 0.0 0.00 0.00 0.00 1019.7
20190418094210 55 239 0.0 0.0 0.00 0.00 0.00 1018.3
20190418094110 55 239 0.0 0.0 0.00 0.00 0.00 1018.3
20190418094011 55 239 0.0 0.0 0.00 0.00 0.00 1018.3
20190418093810 55 239 0.0 0.0 0.00 0.00 0.00 1018.3
20190418093710 55 239 0.0 0.0 0.00 0.00 0.00 1018.7
20190418093510 55 239 0.0 0.0 0.00 0.00 0.00 1018.3
20190418093410 55 239 0.0 0.0 0.00 0.00 0.00 1019.7
20190418093310 55 239 0.0 0.0 0.00 0.00 0.00 1018.3
20190418093210 55 239 0.0 0.0 0.00 0.00 0.00 1019.7
20190418093110 55 239 0.0 0.0 0.00 0.00 0.00 1018.4
20190418093010 55 239 0.0 0.0 0.00 0.00 0.00 1018.6
20190418092910 56 239 0.0 0.0 0.00 0.00 0.00 1019.8
20190418092710 56 239 0.0 0.0 0.00 0.00 0.00 1018.4
20190418092610 56 239 0.0 0.0 0.00 0.00 0.00 1018.4
20190418092410 56 239 0.0 0.0 0.00 0.00 0.00 1018.4
20190418092310 56 239 0.0 0.0 0.00 0.00 0.00 1018.6
20190418092010 56 239 0.0 0.0 0.00 0.00 0.00 1019.9
20190418091911 56 239 0.0 0.0 0.00 0.00 0.00 1018.5
20190418091611 56 239 0.0 0.0 0.00 0.00 0.00 1018.7
20190418091412 56 239 0.0 0.0 0.00 0.00 0.00 1018.6
20190418091310 56 239 0.0 0.0 0.00 0.00 0.00 1020.0
20190418091210 56 239 0.0 0.0 0.00 0.00 0.00 1018.7
20190418091010 56 239 0.0 0.0 0.00 0.00 0.00 1020.0
20190418090710 56 239 0.0 0.0 0.00 0.00 0.00 1018.7
20190418090510 56 239 0.0 0.0 0.00 0.00 0.00 1018.7
20190418090410 56 239 0.0 0.0 0.00 0.00 0.00 1020.1
20190418090310 56 239 0.0 0.0 0.00 0.00 0.00 1020.1
20190418090210 56 239 0.0 0.0 0.00 0.00 0.00 1018.8
20190418090010 56 239 0.0 0.0 0.00 0.00 0.00 1018.8
20190418085910 56 239 0.0 0.0 0.00 0.00 0.00 1020.2
20190418085810 56 239 0.0 0.0 0.00 0.00 0.00 1018.8
20190418085709 56 239 0.0 0.0 0.00 0.00 0.00 1020.2
20190418085610 56 239 0.0 0.0 0.00 0.00 0.00 1020.3
20190418085510 57 239 0.0 0.0 0.00 0.00 0.00 1019.0
20190418085410 57 239 0.0 0.0 0.00 0.00 0.00 1020.3
20190418085310 57 239 0.0 0.0 0.00 0.00 0.00 1019.0
20190418085210 57 239 0.0 0.0 0.00 0.00 0.00 1020.3
20190418085009 57 239 0.0 0.0 0.00 0.00 0.00 1020.3
20190418084910 57 239 0.0 0.0 0.00 0.00 0.00 1020.3
20190418084809 57 239 0.0 0.0 0.00 0.00 0.00 1019.0
20190418084710 57 239 0.0 0.0 0.00 0.00 0.00 1020.3
20190418084610 57 239 0.0 0.0 0.00 0.00 0.00 1018.9
20190418084510 57 239 0.0 0.0 0.00 0.00 0.00 1020.3
20190418084310 57 239 0.0 0.0 0.00 0.00 0.00 1020.4
20190418084209 57 239 0.0 0.0 0.00 0.00 0.00 1020.3
20190418084110 57 239 0.0 0.0 0.00 0.00 0.00 1018.9
20190418084010 57 239 0.0 0.0 0.00 0.00 0.00 1020.2
20190418083910 57 239 0.0 0.0 0.00 0.00 0.00 1018.9
20190418083810 57 239 0.0 0.0 0.00 0.00 0.00 1020.2
20190418083710 57 239 0.0 0.0 0.00 0.00 0.00 1018.9
20190418083609 57 239 0.0 0.0 0.00 0.00 0.00 1019.8
20190418083509 57 239 0.0 0.0 0.00 0.00 0.00 1020.1
20190418083410 57 239 0.0 0.0 0.00 0.00 0.00 1018.8
20190418083310 57 239 0.0 0.0 0.00 0.00 0.00 1020.1
20190418083209 57 239 0.0 0.0 0.00 0.00 0.00 1018.8
20190418083110 57 239 0.0 0.0 0.00 0.00 0.00 1020.1
20190418083009 57 239 0.0 0.0 0.00 0.00 0.00 1018.8
20190418082909 57 239 0.0 0.0 0.00 0.00 0.00 1019.4
20190418082810 57 239 0.0 0.0 0.00 0.00 0.00 1020.2
20190418082710 57 239 0.0 0.0 0.00 0.00 0.00 1018.8
20190418082610 57 239 0.0 0.0 0.00 0.00 0.00 1020.2
20190418082509 56 239 0.0 0.0 0.00 0.00 0.00 1018.9
20190418082409 56 239 0.0 0.0 0.00 0.00 0.00 1020.2
20190418082209 56 239 0.0 0.0 0.00 0.00 0.00 1019.3
20190418082109 57 239 0.0 0.0 0.00 0.00 0.00 1020.2
20190418082009 57 239 0.0 0.0 0.00 0.00 0.00 1018.9
20190418081910 57 239 0.0 0.0 0.00 0.00 0.00 1020.1
20190418081809 57 239 0.0 0.0 0.00 0.00 0.00 1018.9
20190418081709 57 239 0.0 0.0 0.00 0.00 0.00 1020.1
20190418081310 57 239 0.0 0.0 0.00 0.00 0.00 1018.7
20190418081009 57 239 0.0 0.0 0.00 0.00 0.00 1020.2
20190418080709 57 239 0.0 0.0 0.00 0.00 0.00 1020.2
20190418080410 57 239 0.0 0.0 0.00 0.00 0.00 1019.0
20190418080310 57 239 0.0 0.0 0.00 0.00 0.00 1020.1
20190418080109 57 239 0.0 0.0 0.00 0.00 0.00 1018.6
20190418080009 57 239 0.0 0.0 0.00 0.00 0.00 1020.0
20190418075910 57 239 0.0 0.0 0.00 0.00 0.00 1018.6
20190418075809 57 239 0.0 0.0 0.00 0.00 0.00 1020.0
20190418075610 57 239 0.0 0.0 0.00 0.00 0.00 1020.1
20190418075209 57 239 0.0 0.0 0.00 0.00 0.00 1018.7
20190418075109 57 239 0.0 0.0 0.00 0.00 0.00 1020.0
20190418075010 57 239 0.0 0.0 0.00 0.00 0.00 1018.7
20190418074909 57 239 0.0 0.0 0.00 0.00 0.00 1020.0
20190418074809 56 239 0.0 0.0 0.00 0.00 0.00 1020.0
20190418074709 56 239 0.0 0.0 0.00 0.00 0.00 1018.6
20190418074611 56 239 0.0 0.0 0.00 0.00 0.00 1020.0
20190418074510 57 239 0.0 0.0 0.00 0.00 0.00 1018.8
20190418074110 57 239 0.0 0.0 0.00 0.00 0.00 1018.8
20190418073710 56 239 0.0 0.0 0.00 0.00 0.00 1020.0
20190418073012 56 239 0.0 0.0 0.00 0.00 0.00 1020.0
20190418072710 56 239 0.0 0.0 0.00 0.00 0.00 1018.5
20190418072610 56 239 0.0 0.0 0.00 0.00 0.00 1018.4
20190418072509 56 239 0.0 0.0 0.00 0.00 0.00 1019.9
20190418072309 57 239 0.0 0.0 0.00 0.00 0.00 1019.9
20190418072209 57 239 0.0 0.0 0.00 0.00 0.00 1018.5
20190418072009 58 239 0.0 0.0 0.00 0.00 0.00 1019.8
20190418071809 58 239 0.0 0.0 0.00 0.00 0.00 1019.8
20190418071609 58 239 0.0 0.0 0.00 0.00 0.00 1019.9
20190418071409 57 239 0.0 0.0 0.00 0.00 0.00 1019.5
20190418071227 58 239 0.0 0.0 0.00 0.00 0.00 1018.2
20190418071009 57 239 0.0 0.0 0.00 0.00 0.00 1018.3
20190418070709 58 239 0.0 0.0 0.00 0.00 0.00 1019.1
20190418070609 58 239 0.0 0.0 0.00 0.00 0.00 1019.8
20190418070509 58 239 0.0 0.0 0.00 0.00 0.00 1018.2
20190418070409 58 239 0.0 0.0 0.00 0.00 0.00 1019.7
20190418070309 57 239 0.0 0.0 0.00 0.00 0.00 1018.3
20190418070209 58 239 0.0 0.0 0.00 0.00 0.00 1019.7
20190418070009 58 239 0.0 0.0 0.00 0.00 0.00 1018.8
20190418065909 58 239 0.0 0.0 0.00 0.00 0.00 1019.6
20190418065809 58 239 0.0 0.0 0.00 0.00 0.00 1018.0
20190418065709 58 239 0.0 0.0 0.00 0.00 0.00 1018.2
20190418065610 58 239 0.0 0.0 0.00 0.00 0.00 1018.2
20190418065509 58 239 0.0 0.0 0.00 0.00 0.00 1019.6
20190418065209 57 239 0.0 0.0 0.00 0.00 0.00 1019.6
20190418065109 57 239 0.0 0.0 0.00 0.00 0.00 1018.1
20190418065009 57 239 0.0 0.0 0.00 0.00 0.00 1019.6
20190418064809 57 239 0.0 0.0 0.00 0.00 0.00 1019.6
20190418064709 57 239 0.0 0.0 0.00 0.00 0.00 1018.2
20190418064609 57 239 0.0 0.0 0.00 0.00 0.00 1018.4
20190418064509 57 239 0.0 0.0 0.00 0.00 0.00 1019.6
20190418064309 57 239 0.0 0.0 0.00 0.00 0.00 1019.6
20190418064209 57 239 0.0 0.0 0.00 0.00 0.00 1018.2
20190418064109 57 239 0.0 0.0 0.00 0.00 0.00 1019.6
20190418064009 57 239 0.0 0.0 0.00 0.00 0.00 1018.1
20190418063609 56 239 0.0 0.0 0.00 0.00 0.00 1019.7
20190418063510 56 32 0.0 0.0 0.00 0.00 0.00 1018.2
20190418063409 56 32 0.0 0.0 0.00 0.00 0.00 1019.7
20190418063310 56 32 0.0 0.0 0.00 0.00 0.00 1018.5
20190418063209 56 32 0.0 0.0 0.00 0.00 0.00 1018.3
20190418063109 56 32 0.0 0.0 0.00 0.00 0.00 1019.7
20190418062909 56 32 0.0 0.0 0.00 0.00 0.00 1019.7
20190418062809 56 32 0.0 0.0 0.00 0.00 0.00 1018.2
20190418062709 56 32 0.0 0.0 0.00 0.00 0.00 1019.6
20190418062610 56 32 0.0 0.0 0.00 0.00 0.00 1019.6
20190418062209 56 32 0.0 0.0 0.00 0.00 0.00 1019.6
20190418062109 56 32 0.0 0.0 0.00 0.00 0.00 1018.2
20190418061909 56 32 0.0 0.0 0.00 0.00 0.00 1019.6
20190418061709 56 32 0.0 0.0 0.00 0.00 0.00 1019.6
20190418061609 56 32 0.0 0.0 0.00 0.00 0.00 1018.1
20190418061509 56 32 0.0 0.0 0.00 0.00 0.00 1019.6
20190418061409 56 32 0.0 0.0 0.00 0.00 0.00 1018.2
20190418061309 57 32 0.0 0.0 0.00 0.00 0.00 1019.7
20190418061209 57 32 0.0 0.0 0.00 0.00 0.00 1019.6
20190418061109 57 32 0.0 0.0 0.00 0.00 0.00 1018.1
20190418061009 58 32 0.0 0.0 0.00 0.00 0.00 1019.6
20190418060809 58 32 0.0 0.0 0.00 0.00 0.00 1019.6
20190418060709 58 32 0.0 0.0 0.00 0.00 0.00 1018.1
20190418060609 57 32 0.0 0.0 0.00 0.00 0.00 1019.5
20190418060509 57 32 0.0 0.0 0.00 0.00 0.00 1019.5
20190418060409 57 32 0.0 0.0 0.00 0.00 0.00 1018.0
20190418060309 57 32 0.0 0.0 0.00 0.00 0.00 1019.5
20190418060109 57 32 0.0 0.0 0.00 0.00 0.00 1019.6
20190418060009 57 32 0.0 0.0 0.00 0.00 0.00 1018.2
20190418055809 57 32 0.0 0.0 0.00 0.00 0.00 1019.6
20190418055610 57 32 0.0 0.0 0.00 0.00 0.00 1019.6
20190418055209 57 32 0.0 0.0 0.00 0.00 0.00 1019.5
20190418055109 57 32 0.0 0.0 0.00 0.00 0.00 1019.7
20190418055009 57 32 0.0 0.0 0.00 0.00 0.00 1018.2
20190418054909 57 32 0.0 0.0 0.00 0.00 0.00 1019.8
20190418054809 57 32 0.0 0.0 0.00 0.00 0.00 1018.2
20190418054709 57 32 0.0 0.0 0.00 0.00 0.00 1019.8
20190418054609 57 32 0.0 0.0 0.00 0.00 0.00 1018.5
20190418054509 57 32 0.0 0.0 0.00 0.00 0.00 1019.2
20190418054409 58 32 0.0 0.0 0.00 0.00 0.00 1019.8
20190418054309 58 32 0.0 0.0 0.00 0.00 0.00 1018.3
20190418054209 58 32 0.0 0.0 0.00 0.00 0.00 1019.8
20190418054109 58 32 0.0 0.0 0.00 0.00 0.00 1018.3
20190418054009 58 32 0.0 0.0 0.00 0.00 0.00 1019.7
20190418053909 58 32 0.0 0.0 0.00 0.00 0.00 1018.4
20190418053709 58 32 0.0 0.0 0.00 0.00 0.00 1019.8
20190418053609 59 32 0.0 0.0 0.00 0.00 0.00 1018.4
20190418053410 59 32 0.0 0.0 0.00 0.00 0.00 1018.2
20190418053309 59 32 0.0 0.0 0.00 0.00 0.00 1019.8
20190418053209 59 32 0.0 0.0 0.00 0.00 0.00 1018.7
20190418052610 58 32 0.0 0.0 0.00 0.00 0.00 1019.7
20190418052509 58 32 0.0 0.0 0.00 0.00 0.00 1018.4
20190418052109 58 10 5.0 0.0 0.00 0.00 0.00 1019.7
20190418051912 58 39 3.0 0.0 0.00 0.00 0.00 1019.7
20190418051609 58 27 6.0 0.0 0.00 0.00 0.00 1019.7
20190418051409 58 24 6.0 0.0 0.00 0.00 0.00 1019.8
20190418051209 58 44 6.0 0.0 0.00 0.00 0.00 1019.8
20190418051109 58 7 5.0 0.0 0.00 0.00 0.00 1017.3
20190418051009 58 21 5.0 0.0 0.00 0.00 0.00 1018.8
20190418050609 58 38 6.0 0.0 0.00 0.00 0.00 1018.4
20190418050509 58 49 8.0 0.0 0.00 0.00 0.00 1019.7
20190418050009 58 18 8.0 0.0 0.00 0.00 0.00 1019.7
20190418045910 58 359 5.0 0.0 0.00 0.00 0.00 1018.5
20190418045809 58 18 10.0 0.0 0.00 0.00 0.00 1019.7
20190418045709 58 25 9.0 0.0 0.00 0.00 0.00 1018.6
20190418045610 58 21 10.0 0.0 0.00 0.00 0.00 1018.4
20190418045409 58 39 8.0 0.0 0.00 0.00 0.00 1018.4
20190418044909 58 38 8.0 0.0 0.00 0.00 0.00 1018.8
20190418044809 58 21 10.0 0.0 0.00 0.00 0.00 1020.0
20190418044709 58 17 8.0 0.0 0.00 0.00 0.00 1018.8
20190418044509 58 34 9.0 0.0 0.00 0.00 0.00 1018.8
20190418044209 58 32 0.0 0.0 0.00 0.00 0.00 1018.7
20190418044009 58 35 7.0 0.0 0.00 0.00 0.00 1018.8
20190418043809 58 20 9.0 0.0 0.00 0.00 0.00 1018.8
20190418043709 58 45 9.0 0.0 0.00 0.00 0.00 1020.0
20190418043510 58 49 9.0 0.0 0.00 0.00 0.00 1018.8
20190418043309 58 49 8.0 0.0 0.00 0.00 0.00 1018.6
20190418043209 58 44 8.0 0.0 0.00 0.00 0.00 1020.1
20190418043109 58 48 8.0 0.0 0.00 0.00 0.00 1018.8
20190418042909 58 41 7.0 0.0 0.00 0.00 0.00 1020.1
20190418042809 58 48 7.0 0.0 0.00 0.00 0.00 1018.8
20190418042609 58 35 9.0 0.0 0.00 0.00 0.00 1018.8
20190418042409 58 34 8.0 0.0 0.00 0.00 0.00 1018.7
20190418041809 58 41 8.0 0.0 0.00 0.00 0.00 1019.9
20190418041609 58 25 10.0 0.0 0.00 0.00 0.00 1019.2
20190418041409 58 39 8.0 0.0 0.00 0.00 0.00 1018.6
20190418041309 58 27 9.0 0.0 0.00 0.00 0.00 1020.0
20190418041009 58 52 9.0 0.0 0.00 0.00 0.00 1018.6
20190418040909 58 25 6.0 0.0 0.00 0.00 0.00 1019.3
20190418040809 58 46 8.0 0.0 0.00 0.00 0.00 1020.1
20190418040709 58 31 8.0 0.0 0.00 0.00 0.00 1018.9
20190418040609 58 48 8.0 0.0 0.00 0.00 0.00 1020.1
20190418040509 58 35 6.0 0.0 0.00 0.00 0.00 1018.7
20190418040309 58 55 8.0 0.0 0.00 0.00 0.00 1018.8
20190418040209 58 42 9.0 0.0 0.00 0.00 0.00 1019.1
20190418040009 58 35 8.0 0.0 0.00 0.00 0.00 1018.9
20190418035009 58 39 9.0 0.0 0.00 0.00 0.00 1020.2
20190418034909 58 20 11.0 0.0 0.00 0.00 0.00 1018.8
20190418034309 58 28 8.0 0.0 0.00 0.00 0.00 1020.1
20190418034209 58 31 9.0 0.0 0.00 0.00 0.00 1020.2
20190418034009 58 32 9.0 0.0 0.00 0.00 0.00 1020.1
20190418033709 58 4 7.0 0.0 0.00 0.00 0.00 1019.0
20190418033609 58 17 9.0 0.0 0.00 0.00 0.00 1020.3
20190418033409 58 27 8.0 0.0 0.00 0.00 0.00 1019.0
20190418033309 58 20 8.0 0.0 0.00 0.00 0.00 1020.3
20190418032909 58 23 7.0 0.0 0.00 0.00 0.00 1020.3
20190418032809 58 15 5.0 0.0 0.00 0.00 0.00 1020.3
20190418032709 58 359 0.0 0.0 0.00 0.00 0.00 1019.1
20190418032609 58 359 0.0 0.0 0.00 0.00 0.00 1020.3
20190418032309 58 15 5.0 0.0 0.00 0.00 0.00 1019.0
20190418032009 58 15 9.0 0.0 0.00 0.00 0.00 1018.8
20190418031909 58 21 7.0 0.0 0.00 0.00 0.00 1020.3
20190418031809 58 359 5.0 0.0 0.00 0.00 0.00 1018.9
20190418031509 58 53 6.0 0.0 0.00 0.00 0.00 1020.3
20190418031409 58 6 7.0 0.0 0.00 0.00 0.00 1020.3
20190418031209 58 8 5.0 0.0 0.00 0.00 0.00 1020.3
20190418031109 58 4 6.0 0.0 0.00 0.00 0.00 1018.9
20190418031009 58 4 6.0 0.0 0.00 0.00 0.00 1020.3
20190418030709 58 28 7.0 0.0 0.00 0.00 0.00 1020.2
20190418030609 58 25 7.0 0.0 0.00 0.00 0.00 1018.9
20190418030509 58 49 8.0 0.0 0.00 0.00 0.00 1020.2
20190418030409 58 39 7.0 0.0 0.00 0.00 0.00 1018.8
20190418030309 58 37 9.0 0.0 0.00 0.00 0.00 1020.2
20190418030209 58 53 8.0 0.0 0.00 0.00 0.00 1018.9
20190418030109 58 55 8.0 0.0 0.00 0.00 0.00 1019.9
20190418030009 58 69 7.0 0.0 0.00 0.00 0.00 1020.2
20190418025809 58 69 7.0 0.0 0.00 0.00 0.00 1020.1
20190418025709 58 55 8.0 0.0 0.00 0.00 0.00 1018.7
20190418025609 58 56 7.0 0.0 0.00 0.00 0.00 1020.1
20190418025509 58 59 6.0 0.0 0.00 0.00 0.00 1018.9
20190418025309 58 243 0.0 0.0 0.00 0.00 0.00 1020.1
20190418025109 58 243 0.0 0.0 0.00 0.00 0.00 1020.2
20190418024809 58 243 0.0 0.0 0.00 0.00 0.00 1018.9
20190418024709 58 243 0.0 0.0 0.00 0.00 0.00 1019.4
20190418024609 59 243 0.0 0.0 0.00 0.00 0.00 1020.4
20190418024509 59 243 0.0 0.0 0.00 0.00 0.00 1019.0
20190418024409 59 243 0.0 0.0 0.00 0.00 0.00 1020.5
20190418024309 59 269 3.0 0.0 0.00 0.00 0.00 1019.1
20190418024209 59 274 8.0 0.0 0.00 0.00 0.00 1020.7
20190418023909 59 269 3.0 0.0 0.00 0.00 0.00 1020.4
20190418023709 59 285 6.0 0.0 0.00 0.00 0.00 1020.3
20190418023609 59 273 10.0 0.0 0.00 0.00 0.00 1019.0
20190418023209 59 291 9.0 0.0 0.00 0.00 0.00 1020.1
20190418023109 59 291 6.0 0.0 0.00 0.00 0.00 1018.8
20190418022909 59 297 7.0 0.0 0.00 0.00 0.00 1018.6
20190418022809 59 293 7.0 0.0 0.00 0.00 0.00 1020.0
20190418022609 59 266 3.0 0.0 0.00 0.00 0.00 1018.8
20190418022309 59 295 0.0 0.0 0.00 0.00 0.00 1020.0
20190418022209 59 285 5.0 0.0 0.00 0.00 0.00 1018.8
20190418021509 60 283 8.0 0.0 0.00 0.00 0.00 1018.4
20190418021409 60 271 5.0 0.0 0.00 0.00 0.00 1019.9
20190418021308 60 253 5.0 0.0 0.00 0.00 0.00 1019.9
20190418021209 60 270 6.0 0.0 0.00 0.00 0.00 1018.6
20190418021109 60 266 7.0 0.0 0.00 0.00 0.00 1018.3
20190418020909 60 285 7.0 0.0 0.00 0.00 0.00 1019.8
20190418020509 62 291 6.0 0.0 0.00 0.00 0.00 1018.5
20190418020409 62 294 6.0 0.0 0.00 0.00 0.00 1019.6
20190418020009 62 267 5.0 0.0 0.00 0.00 0.00 1019.6
20190418015909 62 281 0.0 0.0 0.00 0.00 0.00 1019.6
20190418015808 62 311 5.0 0.0 0.00 0.00 0.00 1018.4
20190418015209 63 323 5.0 0.0 0.00 0.00 0.00 1019.4
20190418015109 63 322 0.0 0.0 0.00 0.00 0.00 1018.2
20190418015008 63 322 0.0 0.0 0.00 0.00 0.00 1019.5
20190418014908 64 322 0.0 0.0 0.00 0.00 0.00 1018.1
20190418014809 64 322 0.0 0.0 0.00 0.00 0.00 1019.5
20190418014709 64 322 5.0 0.0 0.00 0.00 0.00 1018.2
20190418014309 65 321 5.0 0.0 0.00 0.00 0.00 1019.6
20190418013809 65 291 7.0 0.0 0.00 0.00 0.00 1019.6
20190418013509 66 291 7.0 0.0 0.00 0.00 0.00 1018.2
20190418013408 65 290 7.0 0.0 0.00 0.00 0.00 1019.5
20190418012809 65 323 7.0 0.0 0.00 0.00 0.00 1018.4
20190418012509 64 318 7.0 0.0 0.00 0.00 0.00 1018.9
20190418012409 64 304 7.0 0.0 0.00 0.00 0.00 1019.5
20190418012209 64 304 8.0 0.0 0.00 0.00 0.00 1019.5
20190418012108 65 311 6.0 0.0 0.00 0.00 0.00 1018.3
20190418011909 67 295 9.0 0.0 0.00 0.00 0.00 1018.3
20190418011608 65 323 6.0 0.0 0.00 0.00 0.00 1018.4
20190418011208 64 308 8.0 0.0 0.00 0.00 0.00 1018.3
20190418011009 64 307 10.0 0.0 0.00 0.00 0.00 1019.5
20190418010810 64 307 10.0 0.0 0.00 0.00 0.00 1019.5
20190418010609 62 330 10.0 0.0 0.00 0.00 0.00 1019.4
20190418010509 62 350 6.0 0.0 0.00 0.00 0.00 1018.2
20190418010408 62 336 8.0 0.0 0.00 0.00 0.00 1018.3
20190418010109 62 319 7.0 0.0 0.00 0.00 0.00 1019.3
20190418010009 62 332 8.0 0.0 0.00 0.00 0.00 1018.1
20190418005908 63 329 7.0 0.0 0.00 0.00 0.00 1019.3
20190418005509 62 319 7.0 0.0 0.00 0.00 0.00 1019.4
20190418005409 62 325 10.0 0.0 0.00 0.00 0.00 1019.4
20190418005209 62 322 8.0 0.0 0.00 0.00 0.00 1019.3
20190418004909 63 328 8.0 0.0 0.00 0.00 0.00 1019.3
20190418004809 62 311 8.0 0.0 0.00 0.00 0.00 1018.1
20190418004609 62 314 9.0 0.0 0.00 0.00 0.00 1018.1
20190418004308 63 329 11.0 0.0 0.00 0.00 0.00 1018.6
20190418004209 62 338 9.0 0.0 0.00 0.00 0.00 1019.4
20190418003809 62 322 11.0 0.0 0.00 0.00 0.00 1019.5
20190418003609 63 316 9.0 0.0 0.00 0.00 0.00 1018.0
20190418003509 63 326 12.0 0.0 0.00 0.00 0.00 1019.4
20190418003409 64 319 8.0 0.0 0.00 0.00 0.00 1018.2
20190418003309 63 321 8.0 0.0 0.00 0.00 0.00 1019.4
20190418003009 62 316 12.0 0.0 0.00 0.00 0.00 1019.3
20190418002609 62 318 13.0 0.0 0.00 0.00 0.00 1019.3
20190418002509 62 328 14.0 0.0 0.00 0.00 0.00 1019.3
20190418002409 62 328 13.0 0.0 0.00 0.00 0.00 1019.3
20190418002108 62 321 14.0 0.0 0.00 0.00 0.00 1019.3
20190418002009 62 330 15.0 0.0 0.00 0.00 0.00 1017.9
20190418001908 62 319 13.0 0.0 0.00 0.00 0.00 1019.2
20190418001708 63 328 13.0 0.0 0.00 0.00 0.00 1019.2
20190418001208 63 323 12.0 0.0 0.00 0.00 0.00 1019.3
20190418001108 63 332 13.0 0.0 0.00 0.00 0.00 1016.3
20190418000908 63 325 13.0 0.0 0.00 0.00 0.00 1018.6
20190418000510 63 332 10.0 0.0 0.00 0.00 0.00 1019.4
20190418000410 63 330 12.0 0.0 0.00 0.00 0.00 1017.8
20190418000209 63 330 11.0 0.0 0.00 0.00 0.00 1019.5
20190418000008 63 301 9.0 0.0 0.00 0.00 0.00 1019.6
20190417235908 64 328 8.0 0.0 0.00 0.00 0.00 1018.0
20190417235808 65 305 11.0 0.0 0.00 0.00 0.00 1019.5
20190417235708 64 316 12.0 0.0 0.00 0.00 0.00 1017.9
20190417235609 64 307 13.0 0.0 0.00 0.00 0.00 1018.6
20190417235508 63 316 9.0 0.0 0.00 0.00 0.00 1019.5
20190417235408 65 338 10.0 0.0 0.00 0.00 0.00 1018.0
20190417235308 64 326 9.0 0.0 0.00 0.00 0.00 1019.6
20190417235208 65 325 10.0 0.0 0.00 0.00 0.00 1018.0
20190417235108 65 323 10.0 0.0 0.00 0.00 0.00 1019.6
20190417235008 65 315 13.0 0.0 0.00 0.00 0.00 1018.0
20190417234808 65 309 9.0 0.0 0.00 0.00 0.00 1019.6
20190417234708 65 316 14.0 0.0 0.00 0.00 0.00 1018.0
20190417234509 66 307 12.0 0.0 0.00 0.00 0.00 1017.9
20190417234408 66 315 9.0 0.0 0.00 0.00 0.00 1019.5
20190417234208 66 336 10.0 0.0 0.00 0.00 0.00 1018.2
20190417234108 65 295 8.0 0.0 0.00 0.00 0.00 1016.4
20190417234009 65 298 11.0 0.0 0.00 0.00 0.00 1018.0
20190417233808 65 335 7.0 0.0 0.00 0.00 0.00 1018.0
20190417233708 66 338 10.0 0.0 0.00 0.00 0.00 1019.6
20190417233609 66 302 11.0 0.0 0.00 0.00 0.00 1017.9
20190417233208 66 311 14.0 0.0 0.00 0.00 0.00 1019.6
20190417233109 66 295 12.0 0.0 0.00 0.00 0.00 1018.1
20190417233008 67 298 12.0 0.0 0.00 0.00 0.00 1019.7
20190417232908 66 305 9.0 0.0 0.00 0.00 0.00 1018.8
20190417232708 66 307 8.0 0.0 0.00 0.00 0.00 1018.1
20190417232609 66 308 12.0 0.0 0.00 0.00 0.00 1018.0
20190417232508 66 307 11.0 0.0 0.00 0.00 0.00 1019.7
20190417232308 67 300 13.0 0.0 0.00 0.00 0.00 1019.7
20190417232208 67 300 9.0 0.0 0.00 0.00 0.00 1019.8
20190417232108 68 290 9.0 0.0 0.00 0.00 0.00 1018.4
20190417232008 67 298 8.0 0.0 0.00 0.00 0.00 1019.8
20190417231908 66 283 12.0 0.0 0.00 0.00 0.00 1018.3
20190417231808 66 293 14.0 0.0 0.00 0.00 0.00 1019.9
20190417231608 67 288 10.0 0.0 0.00 0.00 0.00 1019.9
20190417231508 67 300 14.0 0.0 0.00 0.00 0.00 1019.9
20190417231408 67 293 13.0 0.0 0.00 0.00 0.00 1018.4
20190417231308 67 294 13.0 0.0 0.00 0.00 0.00 1019.9
20190417231208 67 287 13.0 0.0 0.00 0.00 0.00 1018.3
20190417231108 66 283 13.0 0.0 0.00 0.00 0.00 1018.3